Theta_e
313 315 314 316 319 320 319 322 322 326 327 330 330 330 329 327 323 325 319 318 317 316 314 311 308 316 319 321 322 326 329 332 333 333 333 330 332 334 333 333 332 334 335 335 336 336 334 334 333
315 314 313 316 316 316 317 320 323 324 327 328 327 327 326 324 323 322 320 317 316 315 312 309 307 308 312 313 318 321 325 329 331 332 332 333 330 334 335 334 334 333 334 334 336 336 335 333 330
314 311 317 316 315 314 317 319 322 325 327 329 325 323 324 323 321 320 317 317 316 313 308 306 305 306 309 311 313 316 320 326 329 331 331 330 333 331 335 332 332 331 334 335 336 335 333 331 330
315 316 316 317 315 316 318 319 321 322 321 323 323 321 321 320 320 317 314 315 314 311 306 305 304 305 306 308 311 312 316 322 326 330 331 330 329 330 331 333 332 329 334 334 335 334 332 330 329
311 316 316 318 318 318 316 317 318 321 320 318 319 318 319 317 316 313 315 314 312 309 305 304 303 303 304 305 308 310 312 316 323 327 328 330 330 330 329 331 332 330 331 334 335 332 330 330 329
316 315 316 316 317 317 317 316 317 319 318 318 317 318 318 317 313 313 314 314 310 307 304 303 301 301 301 302 305 307 311 313 318 322 325 328 329 330 330 331 331 331 330 332 335 331 329 326 327
316 316 316 315 316 317 317 314 316 317 317 317 315 314 315 315 312 311 314 312 308 305 304 302 301 300 300 299 300 303 307 310 314 318 321 326 327 328 329 329 330 331 329 331 332 328 327 326 326
314 315 316 316 317 317 315 314 314 315 315 312 313 312 311 314 310 312 312 310 307 306 303 302 302 301 300 299 299 299 302 306 311 315 319 321 325 326 327 327 324 325 330 331 328 327 324 326 325
311 315 315 315 316 316 312 314 313 311 312 312 312 311 311 310 310 311 310 309 307 306 304 303 302 301 301 300 300 298 298 301 307 312 316 319 322 325 325 326 324 324 323 328 328 326 322 324 323
315 315 314 312 314 314 312 312 311 310 311 311 311 311 309 308 309 310 310 310 308 307 306 304 302 301 301 300 299 298 299 300 303 309 313 317 320 323 325 324 324 324 324 325 327 326 325 325 321
312 313 312 311 310 309 310 310 310 310 310 310 309 310 310 309 309 309 310 309 307 307 306 304 302 301 301 301 300 300 300 301 302 305 310 314 316 320 323 324 323 322 324 325 326 325 324 320 320
311 309 310 310 310 309 310 309 309 309 310 308 309 309 309 310 309 309 309 309 307 307 306 304 302 301 301 300 300 299 299 299 301 303 307 313 315 317 321 322 323 324 324 325 324 324 322 319 319
310 309 309 308 308 308 307 308 308 308 308 308 307 307 309 309 309 309 308 307 306 306 306 304 302 301 301 300 300 299 299 300 300 302 304 311 313 315 317 321 322 324 325 325 323 323 321 319 319
308 309 308 308 308 307 308 308 307 308 307 306 306 307 307 308 308 308 307 307 307 306 306 304 302 300 299 299 299 299 300 301 301 301 304 309 311 313 316 319 321 321 324 323 323 323 320 319 319
308 308 308 308 308 308 306 309 308 309 306 308 308 308 308 308 307 307 308 306 305 305 305 303 301 299 299 298 298 299 300 301 301 302 305 310 310 312 313 316 318 319 320 321 322 321 320 319 319
309 309 311 308 308 308 308 310 306 306 307 308 308 309 308 308 307 306 305 304 303 303 303 301 299 298 297 297 298 299 300 301 301 304 304 308 309 310 312 315 317 320 321 321 320 319 319 319 315
310 311 309 308 307 307 308 311 307 305 307 309 308 307 307 307 305 305 304 303 303 303 301 300 298 298 297 298 298 299 300 301 302 302 305 307 308 309 311 313 315 318 320 321 320 318 317 317 316
310 309 306 307 306 307 308 309 309 308 307 307 307 307 306 306 306 304 303 302 302 300 299 298 297 297 298 298 298 299 301 301 301 303 305 307 307 308 310 311 314 316 318 318 318 317 317 317 317
307 307 307 307 305 304 307 306 307 307 305 306 306 306 306 306 305 303 302 301 300 299 298 297 297 297 297 297 298 300 301 300 303 304 305 305 306 308 308 309 312 315 316 318 317 316 316 315 316
307 308 308 307 303 305 307 308 308 304 306 306 306 306 306 306 305 303 302 301 300 299 298 297 297 297 297 297 298 298 299 300 301 303 303 304 306 308 309 309 310 314 316 319 318 317 317 318 316
308 308 307 307 307 305 306 312 305 305 304 305 305 305 305 306 305 304 303 303 301 300 298 297 296 296 296 297 297 298 299 300 302 301 303 303 305 308 309 311 310 313 315 318 318 318 317 318 317
307 306 306 306 308 312 305 316 309 304 307 306 305 306 307 306 304 303 302 302 302 299 296 296 295 295 296 296 297 298 298 300 300 300 301 303 305 307 309 310 310 312 315 316 319 319 319 318 318
307 306 306 307 309 309 308 309 311 302 307 305 304 305 305 304 304 304 302 301 299 297 297 295 294 295 296 296 296 297 298 298 299 300 301 304 304 306 308 309 310 311 314 317 316 320 320 319 318
305 306 305 306 309 321 308 305 315 306 307 305 303 303 304 304 304 302 301 298 299 296 296 295 294 295 296 296 296 297 298 298 300 300 301 301 303 305 307 308 308 311 312 315 318 319 320 319 319
306 306 341 339 339 331 304 306 314 306 304 305 305 304 304 303 303 303 302 300 299 297 296 294 294 295 296 297 297 297 297 298 299 300 300 300 301 304 306 308 309 310 311 315 319 320 320 320 320
306 305 331 332 324 315 301 310 312 306 303 302 301 303 302 303 303 302 301 300 299 297 295 294 294 295 296 297 297 297 297 297 298 299 299 300 301 303 307 309 309 312 314 315 321 320 320 320 320
306 310 303 309 299 310 311 309 307 304 304 303 303 303 303 302 303 302 300 299 297 296 295 293 294 295 296 297 297 297 297 297 297 297 298 299 301 305 306 309 311 315 316 318 319 321 320 320 320
304 302 312 312 324 322 318 310 315 307 307 305 304 304 303 302 302 301 300 298 297 295 294 292 293 295 296 296 296 297 297 297 297 297 298 300 302 305 308 310 313 318 320 320 320 320 320 320 319
303 306 303 306 308 323 323 321 313 308 306 307 305 302 301 302 303 302 299 297 296 294 293 292 294 295 297 296 296 297 297 297 297 298 299 301 305 307 309 310 316 319 320 320 320 319 319 319 320
302 304 306 322 317 306 309 318 306 306 305 302 303 302 302 301 301 300 298 297 295 294 293 292 293 295 296 296 296 296 295 296 297 298 300 303 306 307 308 312 317 319 319 320 320 320 320 320 319
Wind_Speed
6 4 2 1 4 4 4 4 1 5 4 2 2 2 2 4 5 4 3 3 5 7 11 14 17 17 17 17 17 16 17 18 11 10 11 11 13 13 14 15 16 15 16 16 18 19 18 21 18
4 3 1 1 4 5 3 2 7 4 4 5 3 2 4 1 0 2 2 3 4 7 10 13 16 16 16 17 17 17 15 16 19 11 11 13 14 14 15 16 16 17 18 19 17 20 20 19 15
2 3 2 2 2 5 1 4 4 4 4 3 2 2 1 1 2 1 2 2 4 7 12 14 15 15 16 15 16 16 15 14 15 13 12 13 15 16 16 18 18 18 20 22 20 22 21 19 17
1 2 3 4 6 2 2 3 4 6 4 3 1 4 2 1 3 3 2 2 3 6 10 12 13 13 14 16 16 15 14 13 14 13 11 11 13 15 17 18 18 19 22 22 24 24 21 20 19
1 2 3 3 4 2 3 1 5 6 3 4 3 1 2 5 6 4 4 3 2 5 8 10 11 13 14 13 14 14 13 13 12 12 11 10 9 10 15 17 18 20 20 22 27 25 24 22 22
2 2 3 5 2 1 3 4 5 6 4 3 4 4 2 6 9 7 6 4 4 5 8 9 11 12 13 14 14 14 14 13 12 13 12 9 12 10 8 10 16 20 21 22 22 24 23 23 23
1 2 2 4 4 3 2 4 6 5 5 6 1 4 1 8 9 8 7 5 5 6 6 8 10 12 13 13 13 14 14 13 13 12 12 10 11 13 14 10 13 15 19 22 18 18 20 23 24
1 2 2 3 2 2 3 5 2 6 5 2 3 5 2 6 10 8 6 6 6 5 6 7 9 11 13 14 14 14 14 14 13 13 11 10 13 14 15 16 8 7 12 22 20 23 20 23 25
1 4 4 3 4 1 5 5 4 1 4 4 6 6 1 6 8 8 8 8 7 6 5 7 7 9 11 12 14 16 15 13 12 12 12 11 9 8 13 17 17 6 7 9 8 24 25 23 23
3 3 3 1 3 3 5 5 2 4 7 10 11 11 6 7 9 9 10 9 7 7 6 5 6 8 10 10 12 15 14 12 11 11 9 9 9 8 6 10 17 18 11 13 16 14 30 26 25
1 4 2 3 3 3 4 5 4 5 10 11 7 5 10 10 10 11 12 10 10 8 6 7 7 8 9 9 11 10 12 11 11 11 10 8 9 7 5 2 7 12 14 12 12 28 27 24 24
3 2 2 0 3 3 4 1 5 12 7 2 4 3 5 8 10 12 13 12 12 11 10 9 9 7 7 8 9 10 10 11 10 11 10 8 8 9 6 8 3 11 15 19 21 26 20 20 21
4 1 3 1 3 5 4 9 9 13 13 10 5 5 7 7 10 12 12 13 13 14 11 10 9 7 7 8 9 11 11 10 11 10 9 7 5 5 6 4 5 7 16 25 29 30 29 24 22
2 2 3 2 3 4 6 6 2 1 2 4 13 12 10 10 12 12 11 13 12 13 12 10 9 9 8 10 11 11 11 11 11 9 7 6 6 5 4 4 9 7 12 14 23 26 25 24 22
1 3 5 4 0 2 5 10 11 8 6 5 8 7 7 9 11 13 11 11 12 11 10 9 8 8 9 10 11 10 10 10 9 9 6 4 5 5 5 7 5 11 11 13 20 20 23 24 22
3 2 3 2 1 1 3 8 3 1 8 9 7 7 6 7 9 9 9 9 9 8 6 5 7 8 9 11 11 10 10 10 8 6 5 4 5 3 4 2 6 6 9 18 20 25 27 25 27
1 3 2 2 2 3 4 10 2 1 5 7 8 7 8 8 8 6 3 5 5 2 3 3 5 7 11 10 10 10 9 7 6 7 4 3 6 4 1 2 5 5 14 21 27 31 29 29 27
2 2 2 6 2 3 12 22 19 14 15 17 16 12 8 6 4 1 1 1 1 2 3 3 5 8 9 10 10 9 7 7 6 4 2 3 6 5 4 4 3 8 8 18 27 30 31 31 29
1 2 4 4 2 6 9 17 18 13 8 8 9 9 8 6 3 2 1 1 2 3 3 3 5 7 9 9 10 8 8 7 3 2 3 4 5 5 3 5 3 7 11 17 26 30 25 24 30
2 2 4 4 0 5 11 21 11 3 2 3 2 5 5 5 5 3 3 4 3 4 4 3 4 6 7 8 8 8 10 5 5 4 4 3 4 4 3 4 4 6 11 9 27 24 23 22 33
2 3 1 4 10 3 13 6 1 2 2 1 1 1 3 3 3 2 3 4 3 4 4 2 4 6 6 7 7 8 7 3 1 5 4 4 3 3 3 5 6 6 9 12 23 25 24 18 29
2 2 2 3 6 4 5 5 2 1 1 2 2 3 3 4 4 4 4 4 3 3 3 2 3 4 5 6 6 6 6 3 4 5 6 4 2 4 4 4 6 10 10 16 21 26 24 27 22
2 1 1 0 1 3 2 3 1 1 4 4 3 2 1 3 5 5 5 4 2 3 2 1 2 3 4 6 5 4 5 5 4 6 8 5 4 1 3 3 7 12 16 21 24 28 25 28 23
7 2 1 1 0 2 2 2 2 3 4 4 4 3 3 3 3 3 2 2 2 3 2 1 2 2 4 5 4 5 5 5 4 3 5 6 6 2 1 4 5 13 19 23 23 27 25 30 22
2 1 2 2 1 2 2 3 8 3 5 4 5 5 4 3 4 4 5 5 5 3 2 1 1 2 3 4 5 4 5 5 5 4 3 6 7 5 6 7 5 12 19 23 21 25 26 26 25
5 2 2 3 2 3 2 5 1 1 2 4 4 3 4 6 5 5 5 5 4 4 3 1 1 2 3 4 5 6 6 4 4 3 3 4 7 8 8 9 6 13 17 22 23 28 24 25 26
4 4 2 6 1 2 2 5 8 6 10 9 8 6 7 6 6 6 6 5 4 4 3 2 1 1 2 4 5 6 5 6 6 5 4 5 6 8 10 8 4 15 20 25 24 24 27 25 25
2 4 3 0 2 3 3 5 5 3 10 6 6 6 5 5 6 6 6 6 5 4 3 3 2 2 3 4 5 6 5 6 6 6 5 5 6 8 9 4 4 20 21 24 24 24 25 25 25
4 3 1 1 1 2 3 3 4 4 6 6 5 4 4 5 5 6 6 7 6 5 4 4 3 3 3 5 4 6 5 5 5 7 8 8 8 9 8 6 10 23 26 26 23 22 24 25 19
2 3 6 3 4 0 2 6 3 6 5 4 6 5 4 4 4 6 8 8 8 7 5 4 4 4 2 5 5 5 6 4 4 6 7 8 9 10 10 8 14 23 23 22 24 22 19 19 19
Wind_Direction
343 350 20 275 219 244 213 199 120 172 187 108 105 255 336 330 289 313 91 36 7 357 352 354 352 355 355 355 354 347 348 356 315 287 266 258 246 239 229 223 219 215 203 202 194 192 175 160 156
4 330 32 144 255 234 182 144 200 172 113 125 132 177 232 306 87 119 171 2 352 350 348 349 347 348 347 347 348 347 339 344 352 302 279 258 252 242 238 232 227 216 206 203 197 176 163 155 155
47 14 260 196 222 250 314 187 163 128 154 187 171 278 239 118 152 137 136 324 335 343 340 341 341 340 341 344 342 343 345 339 340 336 292 273 255 247 241 240 232 222 206 204 184 163 157 153 155
273 154 123 255 247 255 299 139 155 154 150 205 230 237 194 188 151 163 206 249 314 330 338 341 339 338 339 338 338 340 340 332 337 345 319 289 270 258 249 243 241 225 220 212 183 164 160 159 160
21 191 221 251 254 264 231 213 189 196 157 185 211 214 234 181 170 194 212 222 286 323 333 337 340 344 343 336 332 331 332 325 318 330 336 293 281 276 254 251 242 227 231 212 187 165 167 165 160
198 273 233 250 240 230 240 194 195 220 194 183 237 253 230 153 180 201 211 226 287 316 326 336 342 344 341 336 331 330 327 325 312 301 313 312 268 264 257 235 245 236 228 220 186 163 168 170 166
246 236 299 286 288 264 204 165 224 230 226 231 167 253 140 190 194 197 210 227 279 301 320 331 337 337 336 334 331 330 326 322 318 305 289 301 289 259 254 238 244 226 235 209 177 171 176 171 169
301 257 213 229 260 267 135 181 287 235 244 88 213 232 213 162 183 198 213 239 267 280 302 319 327 335 335 333 332 331 327 320 315 310 300 296 285 278 256 249 247 296 226 219 197 176 180 178 171
248 244 236 243 204 140 156 208 173 289 240 216 209 246 112 148 180 204 227 249 254 254 275 299 316 329 331 333 329 333 332 322 311 306 309 323 301 289 278 254 250 275 291 256 217 171 173 177 170
232 250 232 215 201 219 187 218 231 242 225 238 236 227 200 189 206 225 237 257 254 247 248 274 301 316 329 331 329 326 327 326 320 310 302 312 313 288 279 261 247 239 266 253 219 195 174 172 168
198 263 156 213 238 236 219 227 206 241 252 245 244 244 208 221 230 242 256 263 265 261 255 262 276 300 321 324 328 325 324 324 321 312 306 287 314 296 292 200 231 220 232 221 208 172 159 162 161
233 235 229 139 224 217 239 284 249 227 241 91 204 139 191 223 238 246 258 269 264 258 257 255 265 286 303 321 322 321 320 318 316 313 307 301 278 307 257 250 227 210 203 194 174 157 166 156 154
263 187 220 182 239 260 287 256 265 255 250 246 207 224 241 240 247 255 259 268 265 260 258 253 260 279 298 319 322 321 317 315 309 307 300 297 281 277 304 237 232 179 192 182 172 165 161 161 158
17 263 276 222 249 271 284 277 285 267 172 230 213 232 243 239 245 259 260 269 268 268 262 253 256 272 299 317 318 315 312 311 308 297 290 280 283 265 275 256 234 216 179 164 158 155 156 154 157
130 276 257 226 302 289 319 260 233 241 212 208 189 207 214 228 237 248 266 281 286 282 270 244 250 277 302 315 315 309 304 307 300 291 286 268 272 274 259 256 250 231 230 194 175 161 162 158 155
263 229 291 93 355 142 288 280 206 207 214 219 213 217 228 230 248 265 273 291 303 287 251 227 257 289 310 307 308 310 308 307 301 290 279 269 256 248 272 270 239 236 204 194 187 183 172 169 157
245 291 290 295 66 300 231 287 42 234 240 250 235 258 262 256 275 264 283 315 312 273 217 237 278 298 306 315 312 310 309 303 291 289 268 248 251 244 306 260 226 203 198 200 188 175 168 153 155
202 261 239 268 26 268 266 267 279 275 269 267 267 266 243 235 268 174 358 319 234 192 220 255 291 306 322 321 324 316 312 309 296 272 268 268 261 256 250 286 249 208 175 177 178 173 169 163 154
160 212 274 285 32 304 271 284 293 308 291 270 256 237 221 227 162 152 136 199 188 214 236 274 302 324 332 330 334 327 325 326 308 309 327 289 262 248 240 246 269 202 193 191 180 172 159 154 162
214 266 285 278 332 306 309 300 308 302 320 324 48 152 175 171 165 178 196 219 223 242 248 280 315 330 335 331 323 312 316 313 317 341 339 306 273 244 222 214 230 199 205 201 166 168 161 162 166
206 253 336 291 318 234 308 259 227 173 274 314 137 107 154 176 184 208 204 238 235 248 250 279 322 325 334 326 324 324 310 298 334 347 344 321 288 257 244 228 222 224 204 207 179 170 167 159 169
241 98 109 320 332 308 8 298 177 333 103 139 117 197 211 193 209 236 231 245 249 234 216 274 320 319 328 329 329 337 320 333 341 328 319 335 301 252 236 225 228 216 197 187 196 179 180 167 172
91 92 50 326 279 309 165 253 178 232 175 173 139 129 158 190 215 225 227 244 195 169 189 274 312 317 331 338 332 337 327 315 338 341 338 331 312 225 218 248 242 217 202 188 198 196 184 176 176
132 124 132 121 123 244 115 315 235 190 175 169 170 185 215 198 221 239 240 231 197 175 186 275 311 329 349 339 327 324 312 325 329 4 347 331 325 334 262 311 266 222 213 199 198 203 188 177 175
157 189 302 313 234 260 124 254 270 203 208 194 172 185 217 216 228 235 239 236 238 207 196 240 327 353 355 342 320 312 316 314 323 339 343 333 323 327 323 326 276 220 217 201 201 190 188 194 188
171 222 187 242 266 308 148 239 230 238 262 232 224 218 240 236 216 231 239 228 234 203 191 197 26 14 355 344 325 318 322 328 303 320 330 313 317 319 336 318 288 206 200 193 190 190 204 198 192
165 198 70 105 78 273 260 261 261 259 252 240 228 211 230 230 217 219 200 209 202 200 196 170 108 27 13 354 336 324 331 339 317 336 343 329 333 331 333 327 271 182 178 181 183 180 191 198 202
286 134 118 44 197 253 271 276 265 227 216 206 209 206 207 218 215 209 197 197 193 201 182 162 122 63 18 1 339 322 338 334 324 342 352 350 345 348 347 349 174 167 168 175 178 185 193 195 188
155 189 147 97 288 219 288 253 202 234 210 195 177 191 195 219 221 216 196 189 187 198 184 173 136 93 43 345 346 328 349 346 333 354 9 4 15 8 12 55 148 164 163 175 182 187 191 188 187
318 210 186 192 188 46 326 275 158 253 261 258 246 245 236 235 233 213 191 185 187 198 194 180 141 117 77 337 352 344 348 356 347 5 22 19 18 32 48 101 157 164 174 172 181 176 180 184 186